Current weather by "City, St" or "zip code"  
 
Advertise Here

Current Conditions: Fort Huachuca, Libby AAF Ft Huachuca, AZ

Mostly Cloudy


94.0 F

Last Updated on Aug 4 2020, 2:58 pm MST
Humidity: 19%
Wind Speed: N 0.0 mph
Barometer 30.15 in
Dewpoint: 46.2 F
Visibility: 10.00 mi
Precip: --
Heat Index: 90 F
Wind Chill: NA
Current conditions at:

Fort Huachuca, Libby AAF Ft Huachuca, AZ (KFHU)

Lat: 31.58333 Lon: 110.33333

Local Radar Image active severe weather and emergency alerts image image weather storm and storm spotter reports image weather observation monitoring service image
Local
Radar
Active
Alerts
Storm Reports Obs
Monitoring

Sign-up For Email & Text Message Weather Alert Notification Services


Advertise Here

Observation History for Fort Huachuca, Libby AAF Ft Huachuca, AZ


Time Wind
(mph)
Vis
(mi)
Weather Precip (in) Temperature (F) Relative
Humidity
Wind
Chill
(F)
Heat
Index
(F)
Pressure
Air Dwpt altimeter
(in)
sea level
(mb)
Rmks
2:58 pm MST N 0.0 10.00 Mostly Cloudy -- 94.0 46.2 19% NA 90 30.15 1012.7
1:58 pm MST W 3.5 10.00 A Few Clouds -- 93.0 46.4 20% NA 89 30.17 1013.6
12:58 pm MST W 3.5 10.00 Fair -- 92.0 44.2 19% NA 88 30.20 1014.4
11:58 am MST N 0.0 10.00 Fair -- 90.0 43.7 20% NA 86 30.23 1015.7
10:58 am MST N 6.9 9.00 Fair -- 89.0 48.0 24% NA 86 30.23 1015.7
9:58 am MST NW 4.6 10.00 Fair -- 87.0 48.9 27% NA 84 30.24 1016.3
8:58 am MST NW 9.2 10.00 Fair -- 84.0 50.4 31% NA 82 30.24 1015.8
7:58 am MST NE 4.6 10.00 Fair -- 79.0 58.8 50% NA NA 30.23 1015.7
6:58 am MST N 0.0 10.00 Fair -- 72.0 56.8 59% NA NA 30.21 1015.3
5:58 am MST N 0.0 8.00 Fair -- 66.0 56.7 72% NA NA 30.21 1015.7
4:58 am MST NW 3.5 10.00 A Few Clouds -- 70.0 55.8 61% NA NA 30.19 1015.0
3:58 am MST W 6.9 9.00 Fair -- 69.0 56.1 63% NA NA 30.18 1014.7
2:58 am MST W 6.9 10.00 Fair -- 68.0 56.8 68% NA NA 30.19 1015.0
1:58 am MST S 5.8 9.00 Fair -- 69.0 59.2 70% NA NA 30.19 1014.3
12:58 am MST SE 9.2 10.00 Fair -- 71.0 58.8 65% NA NA 30.21 1014.8
11:58 pm MST E 3.5 10.00 Mostly Cloudy -- 71.0 60.6 70% NA NA 30.21 1015.0
10:58 pm MST NW 5.8 10.00 Fair -- 70.0 59.9 71% NA NA 30.21 1015.0
9:58 pm MST E 3.5 10.00 Partly Cloudy -- 72.0 59.2 64% NA NA 30.21 1015.3
8:58 pm MST N 0.0 10.00 Mostly Cloudy -- 80.0 51.8 37% NA 80 30.20 1014.7
7:58 pm MST W 16.1 10.00 Partly Cloudy -- 81.0 49.3 33% NA 80 30.17 1013.9
6:58 pm MST W 12.7 10.00 Mostly Cloudy -- 84.0 48.0 29% NA 82 30.16 1013.3
5:58 pm MST W 12.7 10.00 Mostly Cloudy -- 84.0 52.5 34% NA 82 30.16 1013.5
4:58 pm MST SW 9.2 10.00 Mostly Cloudy -- 81.0 55.2 41% NA 81 30.15 1013.4
3:58 pm MST W 25.3 G 32.2 10.00 A Few Clouds and Breezy -- 81.0 59.0 48% NA 81 30.17 1013.9

Regional Weather Observation


Fort Huachuca, Libby AAF Ft Huachuca, AZ (KFHU)

Mostly Cloudy
94.0 F

Nogales, Nogales International Airport, AZ (KOLS)

Fair
95.0 F

Tucson, Tucson International Airport, AZ (KTUS)

Fair
103.0 F

Davis-Monthan Air Force Base, AZ (KDMA)

Fair
104.0 F

Tucson Ryan Field Airport, AZ (KRYN)

Fair and Windy
104.0 F

Bisbee Douglas International Airport, AZ (KDUG)

Fair
36.0 F